Location: Walnut Point State Park
(39.6958°N, 88.0345°W)
Time: 22:20:51
(UTC-05:00)

Cosmos 1833 Rocket - Visible Passes

Search period start: 24 June 2016 00:00
Search period end: 04 July 2016 00:00
Orbit: 834 x 839 km, 71.0° (Epoch: 24 June)

Date Brightness Start Highest point End Pass type
(mag) Time Alt. Az. Time Alt. Az. Time Alt. Az.
24 Jun 5.5 04:26:32 10° N 04:30:56 23° NE 04:35:19 10° ESE visible
24 Jun 5.4 21:00:14 10° WSW 21:04:45 24° NW 21:09:18 10° N visible
25 Jun 5.5 04:09:58 10° N 04:14:13 21° NE 04:18:26 10° ESE visible
26 Jun 5.6 03:53:26 10° N 03:57:29 20° NE 04:01:31 10° E visible
27 Jun 5.6 03:36:55 10° N 03:40:45 18° NE 03:44:35 10° E visible
28 Jun 5.6 03:20:24 10° N 03:24:01 17° NE 03:27:38 10° E visible
29 Jun 5.6 03:03:54 10° NNE 03:07:17 16° NE 03:10:39 10° E visible
29 Jun 2.7 04:46:16 10° NNW 04:51:54 81° WSW 04:57:30 10° SSE visible
30 Jun 5.6 02:47:27 10° NNE 02:50:32 15° NE 02:53:37 10° E visible
30 Jun 2.7 04:29:36 10° NNW 04:35:14 87° WSW 04:40:51 10° SSE visible
01 Jul 5.6 02:31:01 10° NNE 02:33:48 14° NE 02:36:33 10° ENE visible
01 Jul 2.7 04:12:56 10° NNW 04:18:35 86° ENE 04:24:11 10° SSE visible
02 Jul 5.6 02:14:38 10° NNE 02:17:02 13° NE 02:19:27 10° ENE visible
02 Jul 2.8 03:56:16 10° NNW 04:01:55 79° ENE 04:07:31 10° SSE visible
03 Jul 5.6 01:58:20 10° NNE 02:00:18 12° NE 02:02:15 10° ENE visible
03 Jul 2.9 03:39:37 10° NNW 03:45:15 73° ENE 03:50:50 10° SSE visible
